Regional Weather Roundup
Issued by NWS

Home | Current Version | Previous Version | Graphics & Text | Print | Product List | Glossary On
Versions: 1 2 3 4 5 6 7 8 9 10 11 12 13 14 15 16 17 18 19 20 21 22 23 24 25 26 27 28 29 30 31 32 33 34 35 36 37 38 39 40 41 42 43 44 45 46 47 48 49 50
000
ASUS43 KFSD 201102
RWRSD

WEATHER ROUNDUP FOR SOUTH DAKOTA
NATIONAL WEATHER SERVICE SIOUX FALLS SD
500 AM CST TUE FEB 20 2018

NOTE: "FAIR" INDICATES FEW OR NO CLOUDS BELOW 12,000 FEET WITH NO
SIGNIFICANT WEATHER AND/OR OBSTRUCTIONS TO VISIBILITY.


SDZ001>005-009-010-012>017-201200-
NORTHWEST AND NORTH CENTRAL SOUTH DAKOTA

CITY           SKY/WX    TMP DP  RH WIND       PRES   REMARKS
BUFFALO          N/A     -2  -8  76 NW10      29.92S WCI -19
FAITH            N/A      0  -2  91 NW14      30.03R WCI -19
MOBRIDGE       LGT SNOW   5  -1  76 N13       30.04R WCI -12
$$

SDZ012>016-024>037-041>051-057-063-072>074-201200-
SOUTHWEST AND SOUTH CENTRAL SOUTH DAKOTA

CITY           SKY/WX    TMP DP  RH WIND       PRES   REMARKS
RAPID CTY ARPT LGT SNOW  -5  -9  83 N10       30.00R FOG     WCI -23
PIERRE         LGT SNOW   3  -1  83 N16       30.06R FOG     WCI -16
CUSTER         CLOUDY    -7 -13  75 W5        29.73R WCI -18
ELLSWORTH AFB  FLURRIES  -2  -6  84 N10       29.99  WCI -19
PHILIP         LGT SNOW   2  -2  83 NW13      30.08R FOG     WCI -15
PINE RIDGE     LGT SNOW  -1  -5  82 NW7       30.00R FOG     WCI -14
SPEARFISH      FLURRIES  -2  -9  71 W7        29.94R WCI -16
WINNER         CLOUDY     4  -1  80 NW18G25   30.03R WCI -16
$$

SDZ004>011-016>023-039-040-201200-
NORTHEAST SOUTH DAKOTA

CITY           SKY/WX    TMP DP  RH WIND       PRES   REMARKS
ABERDEEN       LGT SNOW   5   0  79 N17       30.05R WCI -14
WATERTOWN      CLOUDY     4   0  83 N12       29.89F WCI -12
BROOKINGS      FLURRIES   6   2  83 N12       29.89S WCI  -9
SISSETON         N/A      4   1  88 NW14      29.99R WCI -14
$$

SDZ017-020-022-023-036>040-048>070-201200-
SOUTHEAST SOUTH DAKOTA

CITY           SKY/WX    TMP DP  RH WIND       PRES   REMARKS
SIOUX FALLS    LGT SNOW   9   5  84 NW9       29.94R FOG     WCI  -4
HURON          CLOUDY     3   0  87 NW14      30.04R WCI -15
CHAMBERLAIN      N/A      6   1  83 NW15      30.03F WCI -12
MITCHELL       LGT SNOW   5   1  83 NW16      30.03R FOG     WCI -14
YANKTON        LGT SNOW   8   4  83 NW18      29.97R FOG     WCI -11
$$

ABBREVIATIONS USED IN REMARKS
   TC - TEMPERATURE IN CELSIUS
  WCI - WIND CHILL INDEX
   HX - HEAT INDEX
  VSB - VISIBILITY





USA.gov is the U.S. government's official web portal to all federal, state and local government web resources and services.